SVR2146 UUBW-UBBB

Flight info

Callsign SVR2146
Flight time N/A
Altitude 35000
Route LINRU2A LINRU T614 OSPER T828 OLBEG N72 WGD A927 SL A964 NOKLI N72 BISNA/N0463F350 N72 NOBVA
Aircraft A20N/M-SDE2E3FGHIRWXY/LB1

Departure

Time N/A
Airport Zhukovsky International Airport (UUBW)

Arrival

Time 2026-04-29 15:05
Airport Heydar Aliyev International Airport (UBBB)
Time Latitude Longitude Altitude Speed Heading
2026-04-29 14:32 41.40005 49.65356 32900 ft 431 kts 164°
2026-04-29 14:32 41.37152 49.66607 31880 ft 432 kts 164°
2026-04-29 14:32 41.34260 49.67872 30609 ft 437 kts 164°
2026-04-29 14:32 41.31376 49.69133 29398 ft 440 kts 164°
2026-04-29 14:33 41.28489 49.70397 28469 ft 433 kts 164°
2026-04-29 14:33 41.25644 49.71641 27565 ft 427 kts 165°
2026-04-29 14:33 41.22838 49.72866 26669 ft 422 kts 165°
2026-04-29 14:33 41.20062 49.74076 25790 ft 418 kts 165°
2026-04-29 14:34 41.17309 49.75274 24946 ft 414 kts 165°
2026-04-29 14:34 41.14583 49.76459 24116 ft 410 kts 165°
2026-04-29 14:34 41.11864 49.77475 23251 ft 404 kts 171°
2026-04-29 14:34 41.09110 49.78037 22536 ft 398 kts 178°
2026-04-29 14:35 41.06376 49.78166 22162 ft 388 kts 182°
2026-04-29 14:35 41.03673 49.78174 21899 ft 390 kts 182°
2026-04-29 14:35 41.00947 49.78195 21639 ft 392 kts 182°
2026-04-29 14:35 40.98232 49.78223 21381 ft 389 kts 182°
2026-04-29 14:36 40.95535 49.78251 21070 ft 387 kts 182°
2026-04-29 14:36 40.92845 49.78278 20566 ft 386 kts 182°
2026-04-29 14:37 40.85178 49.78351 19104 ft 375 kts 182°
2026-04-29 14:37 40.82579 49.78375 18590 ft 371 kts 182°
2026-04-29 14:37 40.80150 49.78396 18099 ft 368 kts 182°
2026-04-29 14:37 40.77564 49.78420 17603 ft 363 kts 182°
2026-04-29 14:38 40.75056 49.78443 17106 ft 358 kts 182°
2026-04-29 14:38 40.72582 49.78464 16629 ft 353 kts 183°
2026-04-29 14:38 40.70157 49.78242 16159 ft 347 kts 190°
2026-04-29 14:38 40.67761 49.77820 15675 ft 344 kts 190°
2026-04-29 14:39 40.65432 49.77417 15228 ft 341 kts 190°
2026-04-29 14:39 40.63090 49.77019 14767 ft 338 kts 190°
2026-04-29 14:39 40.60765 49.76624 14309 ft 335 kts 190°
2026-04-29 14:39 40.58466 49.76225 13861 ft 332 kts 190°
2026-04-29 14:40 40.56180 49.75827 13380 ft 329 kts 190°
2026-04-29 14:40 40.54118 49.75466 12964 ft 326 kts 190°
2026-04-29 14:40 40.54043 49.75453 12950 ft 325 kts 190°
2026-04-29 14:40 40.51936 49.75085 12521 ft 322 kts 190°
2026-04-29 14:41 40.49697 49.74742 11834 ft 327 kts 188°
2026-04-29 14:41 40.47394 49.74541 11109 ft 333 kts 185°
2026-04-29 14:41 40.45081 49.74377 10603 ft 332 kts 185°
2026-04-29 14:41 40.42800 49.74206 10301 ft 320 kts 185°
2026-04-29 14:42 40.40642 49.74260 10113 ft 303 kts 170°
2026-04-29 14:42 40.38744 49.75286 9842 ft 292 kts 152°
2026-04-29 14:42 40.37063 49.76751 9268 ft 290 kts 146°
2026-04-29 14:42 40.35432 49.78275 8701 ft 286 kts 146°
2026-04-29 14:43 40.33816 49.79779 8213 ft 283 kts 146°
2026-04-29 14:43 40.32207 49.81259 7663 ft 281 kts 146°
2026-04-29 14:43 40.30600 49.82717 7110 ft 279 kts 146°
2026-04-29 14:43 40.29013 49.84140 6595 ft 276 kts 146°
2026-04-29 14:44 40.27510 49.85696 5943 ft 277 kts 130°
2026-04-29 14:44 40.26619 49.87906 5261 ft 278 kts 103°
2026-04-29 14:44 40.26584 49.90400 4675 ft 274 kts 77°
2026-04-29 14:44 40.27137 49.92803 4080 ft 271 kts 68°
2026-04-29 14:45 40.27784 49.95111 3540 ft 269 kts 66°
2026-04-29 14:45 40.28381 49.97425 3013 ft 267 kts 69°
2026-04-29 14:45 40.28902 49.99736 2510 ft 264 kts 70°
2026-04-29 14:45 40.29366 50.02023 2164 ft 255 kts 71°
2026-04-29 14:46 40.29787 50.04217 2025 ft 246 kts 71°
2026-04-29 14:46 40.30354 50.06212 2006 ft 222 kts 47°
2026-04-29 14:46 40.31492 50.07406 2001 ft 198 kts 18°
2026-04-29 14:46 40.32438 50.07741 2007 ft 197 kts
2026-04-29 14:47 40.35377 50.07338 2000 ft 176 kts 346°
2026-04-29 14:47 40.36505 50.06992 1955 ft 161 kts 346°
2026-04-29 14:47 40.37580 50.06656 1697 ft 156 kts 346°
2026-04-29 14:48 40.38603 50.06335 1462 ft 144 kts 346°
2026-04-29 14:48 40.39520 50.06048 1275 ft 126 kts 346°
2026-04-29 14:48 40.40323 50.05796 1103 ft 118 kts 346°
2026-04-29 14:48 40.41131 50.05542 934 ft 117 kts 346°
2026-04-29 14:49 40.41922 50.05293 765 ft 119 kts 345°
2026-04-29 14:49 40.42749 50.05035 600 ft 121 kts 345°
2026-04-29 14:49 40.43554 50.04781 424 ft 118 kts 343°
2026-04-29 14:49 40.44349 50.04531 289 ft 116 kts 343°
2026-04-29 14:50 40.45133 50.04284 136 ft 118 kts 341°
2026-04-29 14:50 40.45944 50.04028 22 ft 117 kts 342°
2026-04-29 14:50 40.46688 50.03813 48 ft 118 kts 343°
2026-04-29 14:50 40.47616 50.03545 393 ft 155 kts 343°
2026-04-29 14:51 40.48713 50.03177 1298 ft 157 kts 340°
2026-04-29 14:51 40.49673 50.02594 2360 ft 152 kts 329°
2026-04-29 14:51 40.50402 50.01491 2998 ft 170 kts 309°
2026-04-29 14:51 40.51393 50.00564 3548 ft 188 kts 343°
2026-04-29 14:52 40.52766 50.00636 3907 ft 214 kts 16°
2026-04-29 14:52 40.54010 50.01794 3992 ft 226 kts 49°
2026-04-29 14:52 40.54595 50.03696 4002 ft 230 kts 82°
2026-04-29 14:52 40.54301 50.05782 3998 ft 239 kts 116°
2026-04-29 14:53 40.53190 50.07406 4000 ft 243 kts 149°
2026-04-29 14:53 40.51597 50.08027 4001 ft 241 kts 182°
2026-04-29 14:53 40.49916 50.07995 3998 ft 242 kts 181°
2026-04-29 14:53 40.48198 50.08058 4000 ft 243 kts 180°
2026-04-29 14:54 40.46532 50.08144 3998 ft 241 kts 180°
2026-04-29 14:54 40.44852 50.08215 3999 ft 236 kts 185°
2026-04-29 14:54 40.43332 50.07618 4010 ft 231 kts 216°
2026-04-29 14:54 40.41879 50.06681 4010 ft 237 kts 202°
2026-04-29 14:55 40.40319 50.06017 3997 ft 234 kts 200°
2026-04-29 14:55 40.38767 50.05376 3999 ft 234 kts 200°
2026-04-29 14:55 40.37200 50.04730 3999 ft 237 kts 200°
2026-04-29 14:55 40.35630 50.04081 3990 ft 236 kts 199°
2026-04-29 14:56 40.34077 50.03442 3804 ft 234 kts 200°
2026-04-29 14:56 40.32523 50.02809 3497 ft 234 kts 200°
2026-04-29 14:56 40.31279 50.02327 3278 ft 240 kts 200°
2026-04-29 14:56 40.29633 50.01693 3225 ft 249 kts 199°
2026-04-29 14:57 40.27983 50.01049 3180 ft 244 kts 199°
2026-04-29 14:57 40.26398 50.00438 3082 ft 236 kts 199°
2026-04-29 14:57 40.24818 49.99838 2850 ft 233 kts 199°
2026-04-29 14:57 40.23241 49.99305 2550 ft 236 kts 188°
2026-04-29 14:58 40.21616 49.99595 2209 ft 239 kts 155°
2026-04-29 14:58 40.20365 50.00919 2045 ft 229 kts 119°
2026-04-29 14:58 40.19869 50.02874 2013 ft 224 kts 85°
2026-04-29 14:58 40.20242 50.04755 2018 ft 211 kts 51°
2026-04-29 14:59 40.21242 50.06059 2008 ft 200 kts 29°
2026-04-29 14:59 40.22483 50.06822 2009 ft 197 kts 13°
2026-04-29 14:59 40.23826 50.07012 2010 ft 194 kts 357°
2026-04-29 14:59 40.25180 50.06982 2009 ft 195 kts 359°
2026-04-29 15:00 40.26500 50.07005 2008 ft 188 kts 360°
2026-04-29 15:00 40.27856 50.07039 2008 ft 196 kts 359°
2026-04-29 15:00 40.29217 50.07074 2006 ft 196 kts 359°
2026-04-29 15:00 40.30576 50.07103 2001 ft 194 kts 358°
2026-04-29 15:01 40.31883 50.07128 2000 ft 180 kts 358°
2026-04-29 15:01 40.33071 50.07149 2001 ft 170 kts 358°
2026-04-29 15:01 40.34274 50.07164 2000 ft 172 kts 358°
2026-04-29 15:01 40.35466 50.07137 2025 ft 169 kts 353°
2026-04-29 15:02 40.36555 50.06935 1873 ft 149 kts 348°
2026-04-29 15:02 40.37503 50.06671 1677 ft 129 kts 346°
2026-04-29 15:02 40.38322 50.06422 1493 ft 114 kts 347°
2026-04-29 15:02 40.39117 50.06174 1342 ft 118 kts 347°
2026-04-29 15:03 40.39929 50.05919 1176 ft 119 kts 348°
2026-04-29 15:03 40.40724 50.05670 1012 ft 120 kts 348°
2026-04-29 15:03 40.41538 50.05414 839 ft 119 kts 345°
2026-04-29 15:03 40.42344 50.05161 680 ft 118 kts 345°
2026-04-29 15:04 40.43138 50.04911 521 ft 118 kts 344°
2026-04-29 15:04 40.43947 50.04656 367 ft 122 kts 343°
2026-04-29 15:04 40.44777 50.04396 201 ft 122 kts 339°
2026-04-29 15:04 40.45583 50.04143 46 ft 120 kts 340°
2026-04-29 15:05 40.46330 50.03900 8 ft 84 kts 347°
2026-04-29 15:05 40.46581 50.03824 6 ft 36 kts 346°
2026-04-29 15:05 40.46876 50.03735 7 ft 21 kts 345°
2026-04-29 15:05 40.47013 50.03693 10 ft 20 kts 345°
2026-04-29 15:06 40.47102 50.03661 10 ft 20 kts 344°
2026-04-29 15:06 40.47280 50.03603 10 ft 20 kts 346°
2026-04-29 15:06 40.47413 50.03557 10 ft 20 kts 346°
2026-04-29 15:06 40.47550 50.03518 10 ft 20 kts 347°
2026-04-29 15:07 40.47675 50.03544 8 ft 18 kts 64°
2026-04-29 15:07 40.47624 50.03651 9 ft 16 kts 172°
2026-04-29 15:07 40.47513 50.03682 9 ft 17 kts 161°
2026-04-29 15:07 40.47434 50.03718 10 ft 19 kts 161°
2026-04-29 15:08 40.47249 50.03805 9 ft 23 kts 160°
2026-04-29 15:08 40.47146 50.03859 9 ft 25 kts 161°
2026-04-29 15:08 40.46973 50.03939 8 ft 28 kts 162°
2026-04-29 15:08 40.46847 50.04052 9 ft 20 kts 88°
2026-04-29 15:09 40.46871 50.04179 9 ft 19 kts 76°
2026-04-29 15:09 40.46896 50.04346 9 ft 24 kts 86°
2026-04-29 15:10 40.46912 50.04601 9 ft 24 kts 86°
2026-04-29 15:10 40.46915 50.04810 8 ft 20 kts 98°
2026-04-29 15:11 40.46865 50.04931 8 ft 10 kts 123°
2026-04-29 15:11 40.46864 50.05006 8 ft 4 kts 89°